• In Italy
  • List of Countries
  • For 7 days
  • Water Temperature
  • Satellite Maps
  • Weather Map
  • Weather Widgets
  • user-avatar
    Login

    Hourly Weather Roskov

    Today, 22 September, Saturday

    Time Temperature Precipitation Wind Pressure Humidity
    00:00 +17°C° 0 mm 3 mps 749 mmHg 79%
    01:00 +17°C° 0 mm 3 mps 748 mmHg 79%
    02:00 +16°C° 0 mm 3 mps 748 mmHg 80%
    03:00 +16°C° 0 mm 3 mps 748 mmHg 80%
    04:00 +16°C° 0 mm 3 mps 748 mmHg 79%
    05:00 +15°C° 0 mm 4 mps 747 mmHg 79%
    06:00 +17°C° 0 mm 4 mps 747 mmHg 75%
    07:00 +17°C° 0 mm 5 mps 747 mmHg 72%
    08:00 +19°C° 0 mm 5 mps 746 mmHg 68%
    09:00 +21°C° 0 mm 6 mps 746 mmHg 62%
    10:00 +23°C° 0 mm 7 mps 746 mmHg 57%
    11:00 +26°C° 0 mm 7 mps 745 mmHg 51%
    12:00 +26°C° 0 mm 7 mps 745 mmHg 49%
    13:00 +26°C° 0 mm 7 mps 744 mmHg 47%
    14:00 +27°C° 0 mm 7 mps 744 mmHg 46%
    15:00 +24°C° 0.1 mm 6 mps 744 mmHg 52%
    16:00 +23°C° 0.1 mm 6 mps 744 mmHg 58%
    17:00 +21°C° 0.1 mm 5 mps 744 mmHg 65%
    18:00 +19°C° 0.4 mm 5 mps 744 mmHg 71%
    19:00 +15°C° 0.4 mm 5 mps 744 mmHg 78%
    20:00 +12°C° 0.4 mm 5 mps 744 mmHg 85%
    21:00 +12°C° 0.6 mm 5 mps 745 mmHg 86%
    22:00 +10°C° 0.6 mm 5 mps 745 mmHg 87%
    23:00 +9°C° 0.6 mm 5 mps 745 mmHg 89%

    Tomorrow, 23 September, Sunday

    Time Temperature Precipitation Wind Pressure Humidity
    00:00 +10°C° 1.3 mm 4 mps 745 mmHg 90%
    01:00 +10°C° 1.3 mm 4 mps 745 mmHg 91%
    02:00 +9°C° 1.3 mm 3 mps 745 mmHg 93%
    03:00 +9°C° 0.2 mm 3 mps 745 mmHg 93%
    04:00 +8°C° 0.2 mm 4 mps 745 mmHg 93%
    05:00 +8°C° 0.2 mm 4 mps 745 mmHg 94%
    06:00 +10°C° 0 mm 4 mps 745 mmHg 92%
    07:00 +10°C° 0 mm 4 mps 745 mmHg 91%
    08:00 +10°C° 0 mm 4 mps 745 mmHg 89%
    09:00 +12°C° 0 mm 4 mps 745 mmHg 82%
    10:00 +13°C° 0 mm 4 mps 745 mmHg 75%
    11:00 +14°C° 0 mm 5 mps 745 mmHg 69%
    12:00 +14°C° 0.2 mm 5 mps 745 mmHg 66%
    13:00 +15°C° 0.2 mm 5 mps 745 mmHg 63%
    14:00 +15°C° 0.2 mm 5 mps 745 mmHg 60%
    15:00 +15°C° 0.1 mm 5 mps 745 mmHg 63%
    16:00 +14°C° 0.1 mm 4 mps 745 mmHg 67%
    17:00 +13°C° 0.1 mm 3 mps 745 mmHg 71%
    18:00 +12°C° 0.2 mm 3 mps 745 mmHg 75%
    19:00 +11°C° 0.2 mm 3 mps 745 mmHg 79%
    20:00 +10°C° 0.2 mm 3 mps 745 mmHg 83%
    21:00 +9°C° 0 mm 3 mps 745 mmHg 84%
    22:00 +9°C° 0 mm 3 mps 745 mmHg 86%
    23:00 +8°C° 0 mm 3 mps 745 mmHg 88%

    Day after tomorrow, 24 September, Monday

    Time Temperature Precipitation Wind Pressure Humidity
    00:00 +8°C° 0 mm 3 mps 744 mmHg 87%
    01:00 +8°C° 0 mm 2 mps 744 mmHg 87%
    02:00 +8°C° 0 mm 2 mps 744 mmHg 87%
    03:00 +8°C° 0.1 mm 3 mps 743 mmHg 87%
    04:00 +9°C° 0.1 mm 3 mps 742 mmHg 87%
    05:00 +9°C° 0.1 mm 3 mps 742 mmHg 87%
    06:00 +8°C° 1.2 mm 4 mps 741 mmHg 89%
    07:00 +8°C° 1.2 mm 5 mps 740 mmHg 90%
    08:00 +8°C° 1.2 mm 6 mps 739 mmHg 92%
    09:00 +8°C° 2.2 mm 6 mps 738 mmHg 92%
    10:00 +9°C° 2.2 mm 7 mps 737 mmHg 91%
    11:00 +9°C° 2.2 mm 8 mps 735 mmHg 90%
    12:00 +9°C° 2.5 mm 8 mps 734 mmHg 91%
    13:00 +10°C° 2.5 mm 7 mps 732 mmHg 92%
    14:00 +10°C° 2.5 mm 7 mps 730 mmHg 93%
    15:00 +10°C° 1.4 mm 7 mps 730 mmHg 92%
    16:00 +10°C° 1.4 mm 7 mps 729 mmHg 91%
    17:00 +10°C° 1.4 mm 7 mps 729 mmHg 89%
    18:00 +9°C° 0.7 mm 8 mps 729 mmHg 89%
    19:00 +7°C° 0.7 mm 10 mps 730 mmHg 88%
    20:00 +6°C° 0.7 mm 11 mps 731 mmHg 87%
    21:00 +6°C° 0.3 mm 11 mps 732 mmHg 87%
    22:00 +6°C° 0.3 mm 10 mps 733 mmHg 87%
    23:00 +6°C° 0.3 mm 10 mps 734 mmHg 86%

    25 September, Tuesday

    Time Temperature Precipitation Wind Pressure Humidity
    00:00 +6°C° 0.2 mm 10 mps 736 mmHg 86%
    01:00 +6°C° 0.2 mm 9 mps 737 mmHg 85%
    02:00 +6°C° 0.2 mm 9 mps 738 mmHg 84%
    03:00 +6°C° 0.1 mm 9 mps 739 mmHg 84%
    04:00 +5°C° 0.1 mm 9 mps 739 mmHg 83%
    05:00 +4°C° 0.1 mm 8 mps 740 mmHg 83%
    06:00 +4°C° 0 mm 8 mps 741 mmHg 82%
    07:00 +4°C° 0 mm 8 mps 742 mmHg 82%
    08:00 +3°C° 0 mm 9 mps 743 mmHg 81%
    09:00 +5°C° 0 mm 8 mps 743 mmHg 79%
    10:00 +5°C° 0 mm 8 mps 744 mmHg 76%
    11:00 +5°C° 0 mm 8 mps 745 mmHg 74%
    12:00 +6°C° 0 mm 8 mps 745 mmHg 72%
    13:00 +6°C° 0 mm 8 mps 746 mmHg 70%
    14:00 +6°C° 0 mm 8 mps 746 mmHg 69%
    15:00 +6°C° 0 mm 7 mps 747 mmHg 69%
    16:00 +7°C° 0 mm 6 mps 747 mmHg 69%
    17:00 +7°C° 0 mm 5 mps 748 mmHg 69%
    18:00 +6°C° 0 mm 5 mps 749 mmHg 70%
    19:00 +5°C° 0 mm 5 mps 749 mmHg 71%
    20:00 +3°C° 0 mm 5 mps 750 mmHg 71%
    21:00 +3°C° 0 mm 5 mps 750 mmHg 71%
    22:00 +3°C° 0 mm 5 mps 751 mmHg 70%
    23:00 +2°C° 0 mm 5 mps 752 mmHg 69%

    26 September, Wednesday

    Time Temperature Precipitation Wind Pressure Humidity
    00:00 +2°C° 0 mm 5 mps 752 mmHg 70%
    01:00 +1°C° 0 mm 4 mps 752 mmHg 71%
    02:00 +1°C° 0 mm 4 mps 753 mmHg 72%
    03:00 +1°C° 0 mm 4 mps 753 mmHg 75%
    04:00 +1°C° 0 mm 4 mps 753 mmHg 79%
    05:00 +1°C° 0 mm 4 mps 753 mmHg 82%
    06:00 +2°C° 0.1 mm 5 mps 753 mmHg 80%
    07:00 +3°C° 0.1 mm 5 mps 752 mmHg 78%
    08:00 +4°C° 0.1 mm 6 mps 752 mmHg 76%
    09:00 +5°C° 0.5 mm 6 mps 752 mmHg 78%
    10:00 +6°C° 0.5 mm 7 mps 752 mmHg 79%
    11:00 +8°C° 0.5 mm 7 mps 751 mmHg 81%
    12:00 +8°C° 0.1 mm 7 mps 751 mmHg 81%
    13:00 +8°C° 0.1 mm 7 mps 750 mmHg 81%
    14:00 +9°C° 0.1 mm 7 mps 750 mmHg 81%
    15:00 +8°C° 0.4 mm 7 mps 750 mmHg 83%
    16:00 +8°C° 0.4 mm 7 mps 750 mmHg 86%
    17:00 +8°C° 0.4 mm 7 mps 749 mmHg 88%
    18:00 +8°C° 0.6 mm 7 mps 749 mmHg 88%
    19:00 +6°C° 0.6 mm 8 mps 749 mmHg 89%
    20:00 +6°C° 0.6 mm 8 mps 749 mmHg 89%
    21:00 +6°C° 0.2 mm 8 mps 748 mmHg 88%
    22:00 +6°C° 0.2 mm 8 mps 748 mmHg 88%
    23:00 +6°C° 0.2 mm 8 mps 747 mmHg 88%

    27 September, Thursday

    Time Temperature Precipitation Wind Pressure Humidity
    00:00 +5°C° 0.4 mm 8 mps 747 mmHg 87%
    01:00 +5°C° 0.4 mm 8 mps 746 mmHg 87%
    02:00 +5°C° 0.4 mm 8 mps 746 mmHg 87%
    03:00 +5°C° 0.2 mm 8 mps 745 mmHg 88%
    04:00 +6°C° 0.2 mm 8 mps 744 mmHg 89%
    05:00 +6°C° 0.2 mm 8 mps 744 mmHg 89%
    06:00 +6°C° 0 mm 8 mps 744 mmHg 89%
    07:00 +7°C° 0 mm 8 mps 744 mmHg 88%
    08:00 +7°C° 0 mm 8 mps 743 mmHg 87%
    09:00 +9°C° 0.1 mm 8 mps 743 mmHg 87%
    10:00 +9°C° 0.1 mm 8 mps 743 mmHg 86%
    11:00 +10°C° 0.1 mm 8 mps 743 mmHg 86%
    12:00 +9°C° 0.3 mm 8 mps 743 mmHg 87%
    13:00 +9°C° 0.3 mm 8 mps 742 mmHg 87%
    14:00 +9°C° 0.3 mm 8 mps 742 mmHg 88%
    15:00 +9°C° 0.1 mm 8 mps 741 mmHg 88%
    16:00 +9°C° 0.1 mm 8 mps 741 mmHg 88%
    17:00 +10°C° 0.1 mm 8 mps 741 mmHg 88%
    18:00 +10°C° 0.1 mm 7 mps 741 mmHg 88%
    19:00 +11°C° 0.1 mm 7 mps 740 mmHg 87%
    20:00 +11°C° 0.1 mm 7 mps 740 mmHg 86%
    21:00 +11°C° 0 mm 7 mps 740 mmHg 87%
    22:00 +11°C° 0 mm 8 mps 739 mmHg 87%
    23:00 +10°C° 0 mm 8 mps 739 mmHg 88%
    Show more